Zurück zum Katalog

STARLINK-33807

AktivKommunikationVLEO
NORAD 63518·PAYLOAD·🇺🇸 United States

Gestartet Apr 7, 2025 von Vandenberg Space Force Base

Loading…

Nächste Überflüge (nächste 24 Stunden)

TLE

AktuellSource: CelesTrak SupGP

Epoche: Sep 14, 2026, 22:31 UTC

1 63518C 25071AB  26257.93868056 -.00000657  00000+0 -19416-4 0  2576
2 63518  53.1596 335.9002 0001204  84.0463 301.6055 15.34384104    12

Verfolge STARLINK-33807 in Echtzeit mit AllMySat

Download on the App Store